Location: Newark
(16.3678°N, 77.8722°E)
Time: 01:16:20
(UTC+00:00)

Tiros 1 - Pass Details

Date: 15 December 2019
Orbit: 630 x 664 km, 48.4° (Epoch: 17 January)

Event Time Altitude Azimuth Distance (km) Brightness Sun altitude
Rises 20:29:47 0° 214° (SW) 2,982 - -64.2°
Reaches altitude 10° 20:32:09 10° 211° (SSW) 2,069 - -63.6°
Maximum altitude 20:36:53 65° 130° (SE) 722 - -62.6°
Drops below altitude 10° 20:41:36 10° 49° (NE) 2,058 - -61.5°
Sets 20:43:56 0° 46° (NE) 2,965 - -60.9°
